Location: San Antonio
(29.4240°N, 98.4930°W)
Time: 08:32:54
(UTC-05:00)

ISS - Visible Passes

Search period start: 18 June 2024 00:00
Search period end: 28 June 2024 00:00
Orbit: 411 x 425 km, 51.6° (Epoch: 18 June)

Date Brightness Start Highest point End Pass type
(mag) Time Alt. Az. Time Alt. Az. Time Alt. Az.
18 Jun -1.7 05:16:57 13° S 05:18:55 21° SE 05:21:31 10° ENE visible
19 Jun -1.0 04:31:11 11° SE 04:31:11 11° SE 04:31:59 10° ESE visible
19 Jun -3.1 06:04:25 10° WSW 06:07:35 42° NW 06:10:48 10° NNE visible
20 Jun -3.9 05:18:15 32° SW 05:19:38 90° E 05:22:58 10° NE visible
21 Jun -2.6 04:32:16 37° ESE 04:32:16 37° ESE 04:34:52 10° ENE visible
21 Jun -1.4 06:06:42 10° WNW 06:08:36 14° NW 06:10:32 10° N visible
22 Jun -0.6 03:46:11 11° E 03:46:11 11° E 03:46:20 10° ENE visible
22 Jun -2.1 05:19:06 19° WNW 05:20:27 24° NW 05:23:14 10° NNE visible
23 Jun -2.7 04:32:55 40° NNW 04:32:55 40° NNW 04:35:33 10° NNE visible
24 Jun -0.9 03:46:39 18° NE 03:46:39 18° NE 03:47:35 10° NE visible
25 Jun -1.3 04:33:12 15° NW 04:33:12 15° NW 04:35:06 10° N visible
26 Jun -0.8 03:46:46 15° N 03:46:46 15° N 03:47:38 10° NNE visible
